[[{"header":{"parameterUnit":"m.s-1","parameterCategory":1,"la1":30.2991,"la2":30.254,"lo1":-89.0895,"lo2":-89.0444,"dy":0.0017,"dx":0.0017,"nx":28,"ny":28,"refTime":"2024-04-25T09:00:00:Z","depth":0,"parameterNumber":2,"parameterNumberName":"U-component_of_WINDS"},"data":[0,0,0,0,0,0,0,0,0,0,0,0,0,0,0,0,0,0,0,0,0,0,0,0,0,0,0,0,0,0,0,0,0,0,0,0,0,0,0,0,0,0,0,0,0,0,0,0,0,0,0,0,0,0,0,0,0,0,1.7045,1.7046,0,1.7118,1.7119,1.712,1.7126,1.7126,1.7125,1.7124,1.7197,1.72,1.7202,0,0,0,0,0,0,0,0,0,0,0,0,0,1.6906,1.6908,1.7045,1.7046,1.7047,1.7118,1.7119,1.712,1.7127,1.7126,1.7125,1.7124,1.7196,1.7199,1.7202,0,0,0,0,0,0,0,0,0,0,0,0,0,1.6971,1.6909,1.7045,1.7059,1.7061,1.7118,1.7119,1.712,1.7127,1.7126,1.7124,1.7123,1.7195,1.7199,1.7203,1.7251,0,0,1.7215,1.7217,0,0,0,0,0,0,0,0,1.6968,1.6976,1.7056,1.7058,1.706,1.7112,1.7097,1.7164,1.7127,1.7102,1.7124,1.7123,1.717,1.7176,1.7192,1.7254,1.7257,1.7215,1.7218,1.722,1.7221,0,0,0,0,0,0,0,1.6963,1.6973,1.7074,1.7057,1.7059,1.706,1.7068,1.711,1.7141,1.7104,1.7104,1.7113,1.717,1.7188,1.7194,1.7258,1.7215,1.7219,1.7221,1.7223,1.736,1.7361,0,0,0,0,0,0,1.6956,1.6969,1.7071,1.7076,1.701,1.7063,1.7072,1.7096,1.7141,1.7146,1.7114,1.7113,1.7182,1.7189,1.7196,1.7253,1.722,1.7223,1.7226,1.7359,1.736,1.7362,0,0,0,0,0,0,1.6953,1.6965,1.7068,1.7023,1.7036,1.7067,1.7094,1.7099,1.7116,1.7148,1.7154,1.7126,1.7181,1.719,1.7236,1.7255,1.7225,1.7229,1.7357,1.7359,1.7361,1.7367,0,0,0,0,0,0,1.6949,1.6964,1.6984,1.7023,1.7039,1.7109,1.7095,1.7101,1.7123,1.7123,1.7161,1.7167,1.7181,1.723,1.724,1.726,1.7232,1.7356,1.7358,1.736,1.7366,1.7369,1.7372,0,0,0,0,0,1.6944,1.6983,1.6985,1.6997,1.7064,1.711,1.7119,1.7135,1.7125,1.7144,1.7164,1.7165,1.7252,1.7235,1.7246,1.7268,1.7355,1.7358,1.736,1.7364,1.7369,1.7372,0,0,0,0,0,0,1.6945,1.6989,1.6991,1.7044,1.7073,1.7111,1.7136,1.7139,1.7172,1.717,1.7188,1.7196,1.7241,1.7259,1.724,1.7315,1.7302,1.7307,1.7301,1.7306,1.7309,1.7303,1.7235,0,0,0,0,0,1.6951,1.6986,1.7022,1.7065,1.708,1.7105,1.7126,1.7136,1.7166,1.7179,1.7203,1.7231,1.7265,1.7286,1.7319,1.7369,1.7376,1.7388,1.7392,1.7394,1.7398,1.7423,1.7428,1.7371,1.7371,1.7371,0,0,1.6965,1.6993,1.7014,1.7066,1.709,1.7124,1.7116,1.7153,1.7177,1.7184,1.7228,1.7247,1.728,1.7327,1.7349,1.7344,1.7416,1.7398,1.74,1.7402,1.7426,1.7431,1.7436,1.7373,1.7373,1.7372,0,0,1.7006,1.7032,1.7069,1.7093,1.7129,1.7145,1.7154,1.7191,1.7203,1.7248,1.7253,1.7282,1.734,1.7363,1.7382,1.7429,1.743,1.7439,1.7456,1.748,1.7484,1.7488,1.7502,1.7508,1.7443,1.7443,1.7443,0,1.7017,1.707,1.7088,1.7124,1.7145,1.7153,1.7189,1.7211,1.7256,1.727,1.7263,1.7334,1.7358,1.7408,1.742,1.7436,1.7445,1.7434,1.7482,1.7486,1.749,1.7504,1.751,1.7444,1.7444,1.7444,1.7443,0,1.7081,1.7117,1.7143,1.7185,1.721,1.7246,1.7267,1.729,1.7297,1.7313,1.7357,1.7385,1.7422,1.7435,1.7443,1.7487,1.7482,1.7479,1.7466,1.7496,1.7509,1.7515,1.7445,1.7444,1.7444,1.7444,0,0,1.7125,1.7175,1.7184,1.7202,1.7242,1.7269,1.7305,1.7341,1.7359,1.7389,1.7417,1.7465,1.7462,1.7483,1.7494,1.7515,1.7546,1.7508,1.7509,1.7512,1.7593,1.7594,1.76,1.7548,1.7549,1.755,1.7589,0,1.7168,1.7232,1.7248,1.7302,1.7334,1.7341,1.7371,1.7398,1.7413,1.7442,1.7459,1.7491,1.7486,1.7498,1.752,1.7538,1.7563,1.7536,1.7573,1.7574,1.7563,1.7607,1.7609,1.7644,1.7595,1.7596,1.7597,0,1.7228,1.7259,1.7316,1.7349,1.7362,1.739,1.7423,1.7451,1.748,1.749,1.7513,1.752,1.7555,1.7542,1.7589,1.757,1.7586,1.7597,1.7599,1.7602,1.7586,1.7609,1.7657,1.7661,1.7605,1.7605,1.7604,0,1.7251,1.7307,1.7347,1.7363,1.7403,1.7421,1.7439,1.7467,1.7487,1.7516,1.7528,1.7561,1.7578,1.7603,1.7618,1.7607,1.7663,1.7651,1.767,1.767,1.7681,1.7679,1.7729,1.7694,1.7694,1.7694,1.7694,0,1.7296,1.733,1.7358,1.7382,1.742,1.7437,1.7473,1.749,1.7515,1.7542,1.755,1.7575,1.7594,1.7621,1.7634,1.7669,1.7678,1.7685,1.7687,1.7683,1.7682,1.7693,1.769,1.7695,1.7695,1.7695,1.7695,0,1.7328,1.7348,1.7392,1.7426,1.7435,1.7461,1.7489,1.7512,1.7528,1.7562,1.757,1.7595,1.7627,1.7644,1.7685,1.7693,1.7732,1.7734,1.7722,1.7723,1.774,1.7737,1.7797,1.7805,1.7766,1.7766,1.7767,0,1.7355,1.7381,1.7417,1.7436,1.7453,1.7484,1.7504,1.7521,1.7542,1.7576,1.7594,1.7627,1.7653,1.7704,1.7724,1.7754,1.7756,1.7775,1.7761,1.7755,1.7754,1.7751,1.7753,1.7777,1.7777,1.7778,1.7778,0,1.7399,1.7407,1.7437,1.7469,1.7493,1.7519,1.7545,1.7559,1.7581,1.7603,1.7636,1.7656,1.7697,1.7728,1.776,1.7776,1.778,1.7782,1.7788,1.7783,1.7774,1.7777,1.7726,1.7781,1.778,1.778,1.778,1.778,1.7428,1.745,1.7479,1.751,1.7531,1.7555,1.7578,1.7596,1.7624,1.7658,1.7666,1.77,1.7726,1.7769,1.7786,1.7812,1.7808,1.7817,1.7819,1.782,1.782,1.7771,1.7818,1.7818,1.7818,1.7818,1.7818,0,1.7471,1.7489,1.7518,1.7554,1.7578,1.758,1.7608,1.7628,1.7658,1.7682,1.7708,1.7744,1.7774,1.7797,1.7827,1.7843,1.7845,1.785,1.7848,1.7851,1.7822,1.7813,1.7848,1.7848,1.7848,1.7848,1.7848,1.7848,1.7496,1.7533,1.7544,1.7591,1.7609,1.7643,1.7658,1.7679,1.7698,1.7739,1.7764,1.7778,1.7801,1.7833,1.786,1.7865,1.7875,1.7879,1.7885,1.7857,1.7854,1.7851,1.7842,1.7882,1.7882,1.7912,1.7912,1.7912]},{"header":{"parameterUnit":"m.s-1","parameterCategory":1,"la1":30.2991,"la2":30.254,"lo1":-89.0895,"lo2":-89.0444,"dy":0.0017,"dx":0.0017,"nx":28,"ny":28,"refTime":"2024-04-25T09:00:00:Z","depth":0,"parameterNumber":3,"parameterNumberName":"V-component_of_WINDS"},"data":[0,0,0,0,0,0,0,0,0,0,0,0,0,0,0,0,0,0,0,0,0,0,0,0,0,0,0,0,0,0,0,0,0,0,0,0,0,0,0,0,0,0,0,0,0,0,0,0,0,0,0,0,0,0,0,0,0,0,2.0434,2.0434,0,2.0473,2.0473,2.0474,2.045,2.0449,2.0447,2.0446,2.0482,2.0484,2.0486,0,0,0,0,0,0,0,0,0,0,0,0,0,2.0332,2.0334,2.0434,2.0434,2.0435,2.0473,2.0473,2.0474,2.045,2.0449,2.0447,2.0446,2.0481,2.0484,2.0486,0,0,0,0,0,0,0,0,0,0,0,0,0,2.0374,2.0335,2.0434,2.0427,2.0427,2.0473,2.0473,2.0474,2.045,2.0449,2.0447,2.0445,2.0481,2.0484,2.0487,2.0539,0,0,2.0496,2.0497,0,0,0,0,0,0,0,0,2.0372,2.0378,2.0428,2.0428,2.0428,2.0455,2.0451,2.0496,2.0451,2.0441,2.0446,2.0444,2.0474,2.0477,2.0488,2.0541,2.0542,2.0496,2.0498,2.0499,2.05,0,0,0,0,0,0,0,2.0369,2.0376,2.0449,2.0429,2.0429,2.0421,2.0425,2.0459,2.0467,2.0442,2.044,2.0446,2.0474,2.0486,2.0489,2.0543,2.0496,2.0499,2.05,2.0502,2.0637,2.0639,0,0,0,0,0,0,2.0367,2.0374,2.0448,2.045,2.0395,2.0424,2.0429,2.0448,2.0466,2.0467,2.0447,2.0444,2.0481,2.0486,2.049,2.0551,2.0499,2.0502,2.0504,2.0635,2.0638,2.064,0,0,0,0,0,0,2.0365,2.0374,2.0446,2.0412,2.042,2.0428,2.0449,2.0449,2.0461,2.047,2.0471,2.0458,2.048,2.0486,2.0527,2.0552,2.0503,2.0506,2.0633,2.0636,2.0639,2.0675,0,0,0,0,0,0,2.0363,2.0374,2.0395,2.0412,2.0422,2.0484,2.0451,2.0451,2.0467,2.0464,2.0481,2.0482,2.0479,2.0522,2.053,2.0556,2.0508,2.0631,2.0635,2.0638,2.0671,2.0679,2.0685,0,0,0,0,0,2.0359,2.0403,2.0396,2.0405,2.045,2.0486,2.0491,2.0489,2.0469,2.049,2.0495,2.0481,2.0549,2.0527,2.0535,2.0562,2.0629,2.0634,2.0638,2.0669,2.0677,2.0684,0,0,0,0,0,0,2.0387,2.0405,2.0398,2.045,2.0466,2.0481,2.0507,2.0498,2.0519,2.0515,2.051,2.0514,2.0556,2.0563,2.0539,2.0612,2.0586,2.0592,2.0606,2.0615,2.0621,2.0618,2.0511,0,0,0,0,0,2.04,2.0429,2.0443,2.0487,2.0496,2.05,2.0516,2.0512,2.0529,2.0536,2.0544,2.0559,2.0583,2.06,2.0623,2.0672,2.0675,2.0695,2.0701,2.0707,2.0712,2.0737,2.0745,2.0653,2.0653,2.0653,0,0,2.0425,2.0439,2.0458,2.0493,2.0505,2.0534,2.0506,2.0538,2.0559,2.054,2.0579,2.0585,2.0602,2.0647,2.0667,2.0654,2.0738,2.0712,2.0716,2.0718,2.0742,2.075,2.0758,2.0656,2.0655,2.0655,0,0,2.0487,2.0501,2.0538,2.0551,2.0571,2.0574,2.0583,2.0599,2.0603,2.0642,2.0628,2.0652,2.0695,2.0706,2.0718,2.0782,2.077,2.079,2.0824,2.0848,2.0855,2.0862,2.0883,2.0891,2.0795,2.0795,2.0795,0,2.0516,2.056,2.0558,2.0591,2.0606,2.0591,2.0628,2.064,2.0666,2.0676,2.0661,2.0713,2.0723,2.077,2.0786,2.0796,2.0805,2.0788,2.0855,2.0861,2.0867,2.0887,2.0896,2.0797,2.0797,2.0797,2.0796,0,2.0593,2.0624,2.0652,2.0678,2.0696,2.0731,2.0732,2.075,2.0745,2.0748,2.0787,2.0799,2.0823,2.0834,2.0829,2.088,2.0871,2.0856,2.0829,2.0878,2.0897,2.0905,2.08,2.0799,2.0799,2.0798,0,0,2.0674,2.0698,2.0708,2.0719,2.074,2.0762,2.0795,2.082,2.0835,2.0853,2.0879,2.0915,2.0901,2.0914,2.091,2.0931,2.0979,2.0913,2.0913,2.0924,2.1034,2.1045,2.1054,2.0972,2.0973,2.0974,2.1032,0,2.0735,2.0794,2.0793,2.0847,2.0874,2.086,2.0888,2.0902,2.0906,2.0928,2.0932,2.0957,2.0937,2.0944,2.0965,2.0969,2.1001,2.0965,2.0994,2.0995,2.0989,2.1064,2.1076,2.113,2.104,2.1041,2.1042,0,2.0815,2.0836,2.0893,2.0908,2.0919,2.0945,2.0967,2.0989,2.1004,2.1005,2.102,2.1012,2.1043,2.1016,2.1057,2.1033,2.1044,2.1048,2.105,2.1051,2.1021,2.1067,2.1148,2.1155,2.1054,2.1053,2.1052,0,2.0865,2.0909,2.0948,2.0958,2.0977,2.0995,2.1003,2.1017,2.1031,2.105,2.1059,2.1081,2.1092,2.1109,2.1106,2.1087,2.1148,2.1121,2.1148,2.1148,2.1161,2.116,2.1244,2.117,2.117,2.117,2.117,0,2.0933,2.0968,2.0971,2.0995,2.1033,2.103,2.1067,2.1074,2.1086,2.1109,2.1098,2.112,2.1116,2.1137,2.1135,2.1169,2.1175,2.1175,2.1174,2.1176,2.1176,2.1183,2.1178,2.1172,2.1172,2.1171,2.1171,0,2.0996,2.1,2.1041,2.1056,2.106,2.1088,2.1099,2.1121,2.1123,2.1153,2.116,2.1164,2.1188,2.1187,2.1215,2.1214,2.1255,2.125,2.125,2.1249,2.1276,2.1273,2.1366,2.1377,2.1298,2.1298,2.1299,0,2.1039,2.1066,2.1083,2.1099,2.1109,2.1134,2.1149,2.1146,2.1162,2.1181,2.12,2.1224,2.1242,2.1282,2.1286,2.1307,2.1301,2.1333,2.1304,2.1305,2.13,2.1298,2.13,2.1338,2.1339,2.1339,2.134,0,2.1114,2.1114,2.1137,2.116,2.1179,2.1196,2.1213,2.1226,2.1225,2.1243,2.1268,2.1283,2.1311,2.1334,2.1354,2.136,2.135,2.1349,2.1356,2.1358,2.1356,2.1356,2.1264,2.1347,2.1346,2.1345,2.1345,2.1345,2.1167,2.1189,2.1205,2.123,2.1243,2.1258,2.1279,2.1284,2.1306,2.133,2.1326,2.1355,2.1367,2.1393,2.1401,2.1422,2.1411,2.1421,2.1424,2.1426,2.1429,2.1354,2.1426,2.1425,2.1425,2.1425,2.1425,0,2.124,2.1249,2.1273,2.1296,2.1315,2.1305,2.1322,2.1339,2.1364,2.1378,2.1396,2.1425,2.1447,2.1453,2.1474,2.1489,2.1484,2.1494,2.1492,2.1494,2.1438,2.143,2.1498,2.1498,2.1498,2.1498,2.1498,2.1498,2.128,2.1317,2.1319,2.1361,2.1369,2.1398,2.1408,2.1422,2.1432,2.1465,2.1484,2.1488,2.1498,2.1519,2.1538,2.1539,2.1547,2.1559,2.1558,2.1505,2.1498,2.1491,2.1483,2.1561,2.1561,2.1611,2.1612,2.1612]}]]